[[{"header":{"parameterUnit":"m.s-1","parameterCategory":1,"la1":30.2991,"la2":30.254,"lo1":-89.0895,"lo2":-89.0444,"dy":0.0017,"dx":0.0017,"nx":28,"ny":28,"refTime":"2025-08-08T21:00:00:Z","depth":0,"parameterNumber":2,"parameterNumberName":"U-component_of_WINDS"},"data":[0,0,0,0,0,0,0,0,0,0,0,0,0,0,0,0,0,0,0,0,0,0,0,0,0,0,0,0,0,0,0,0,0,0,0,0,0,0,0,0,0,0,0,0,0,0,0,0,0,0,0,0,0,0,0,0,0,0,-3.5999,-3.5999,0,-3.6018,-3.6019,-3.6019,-3.5929,-3.5926,-3.5923,-3.5921,-3.5946,-3.5949,-3.5952,0,0,0,0,0,0,0,0,0,0,0,0,0,-3.5889,-3.5891,-3.5999,-3.5999,-3.5999,-3.6018,-3.6019,-3.6019,-3.5929,-3.5926,-3.5923,-3.592,-3.5945,-3.5948,-3.5952,0,0,0,0,0,0,0,0,0,0,0,0,0,-3.5926,-3.5892,-3.5999,-3.5957,-3.5953,-3.6018,-3.6019,-3.6019,-3.593,-3.5926,-3.5922,-3.5918,-3.5944,-3.5948,-3.5953,-3.6061,0,0,-3.5967,-3.5969,0,0,0,0,0,0,0,0,-3.5924,-3.593,-3.5963,-3.596,-3.5956,-3.5967,-3.5989,-3.6033,-3.5931,-3.5939,-3.5921,-3.5916,-3.5956,-3.596,-3.5972,-3.6062,-3.6063,-3.5968,-3.597,-3.5972,-3.5974,0,0,0,0,0,0,0,-3.5921,-3.5928,-3.6007,-3.5963,-3.5959,-3.5939,-3.5939,-3.5997,-3.597,-3.5938,-3.5931,-3.5934,-3.5954,-3.5968,-3.5972,-3.6064,-3.5967,-3.5972,-3.5974,-3.5976,-3.6245,-3.6249,0,0,0,0,0,0,-3.5924,-3.5927,-3.6006,-3.6007,-3.5929,-3.5944,-3.5945,-3.5967,-3.5969,-3.5965,-3.5938,-3.593,-3.5962,-3.5967,-3.5973,-3.61,-3.5972,-3.5977,-3.5979,-3.6241,-3.6246,-3.6251,0,0,0,0,0,0,-3.5922,-3.5932,-3.6005,-3.5965,-3.5973,-3.595,-3.5976,-3.597,-3.5984,-3.5969,-3.5964,-3.5957,-3.5959,-3.5966,-3.604,-3.61,-3.5979,-3.5983,-3.6236,-3.6243,-3.6248,-3.6356,0,0,0,0,0,0,-3.5919,-3.5931,-3.5971,-3.5967,-3.5976,-3.6071,-3.598,-3.5973,-3.5992,-3.5982,-3.5985,-3.5982,-3.5956,-3.6033,-3.6044,-3.6104,-3.5987,-3.623,-3.6239,-3.6246,-3.6347,-3.6365,-3.6381,0,0,0,0,0,-3.5915,-3.6001,-3.5973,-3.5983,-3.6024,-3.6074,-3.6079,-3.6046,-3.5997,-3.6037,-3.6028,-3.5982,-3.6092,-3.6041,-3.6053,-3.6115,-3.6226,-3.6236,-3.6246,-3.6339,-3.6361,-3.638,0,0,0,0,0,0,-3.6014,-3.6,-3.5969,-3.6055,-3.6067,-3.6059,-3.6108,-3.6071,-3.6097,-3.6087,-3.6047,-3.6048,-3.6129,-3.613,-3.6074,-3.6221,-3.6151,-3.6163,-3.6217,-3.6239,-3.6255,-3.6253,-3.5991,0,0,0,0,0,-3.6046,-3.6086,-3.6072,-3.615,-3.6157,-3.6132,-3.6152,-3.6126,-3.6137,-3.6141,-3.6137,-3.6151,-3.6188,-3.6213,-3.6247,-3.6347,-3.6347,-3.6395,-3.6412,-3.6426,-3.6438,-3.6492,-3.6513,-3.6283,-3.6283,-3.6283,0,0,-3.6112,-3.6109,-3.6137,-3.6169,-3.6175,-3.6219,-3.6136,-3.6186,-3.6219,-3.6149,-3.6218,-3.6216,-3.6228,-3.6316,-3.6354,-3.6319,-3.6502,-3.6439,-3.645,-3.6454,-3.6504,-3.6526,-3.6545,-3.6289,-3.6288,-3.6287,0,0,-3.6254,-3.6256,-3.6321,-3.6329,-3.6337,-3.6321,-3.6337,-3.6335,-3.633,-3.6398,-3.6347,-3.6387,-3.6452,-3.6463,-3.6477,-3.6627,-3.6586,-3.6639,-3.6728,-3.6781,-3.6799,-3.6815,-3.6869,-3.6889,-3.665,-3.6651,-3.6651,0,-3.6336,-3.6398,-3.636,-3.6413,-3.643,-3.6368,-3.6435,-3.6444,-3.6465,-3.6478,-3.6438,-3.6519,-3.6523,-3.6613,-3.6649,-3.6663,-3.6681,-3.6638,-3.6799,-3.6815,-3.6829,-3.688,-3.6901,-3.6657,-3.6656,-3.6656,-3.6655,0,-3.6498,-3.6543,-3.6595,-3.6614,-3.6637,-3.6697,-3.667,-3.6698,-3.667,-3.6659,-3.673,-3.6733,-3.6766,-3.6786,-3.676,-3.6873,-3.685,-3.6806,-3.6734,-3.6858,-3.6905,-3.6925,-3.6666,-3.6664,-3.6662,-3.666,0,0,-3.6702,-3.6701,-3.6721,-3.6729,-3.6735,-3.677,-3.6828,-3.6859,-3.6885,-3.6902,-3.695,-3.7008,-3.6966,-3.6983,-3.6958,-3.7005,-3.7124,-3.6954,-3.6954,-3.6986,-3.725,-3.7283,-3.7306,-3.7097,-3.7101,-3.7104,-3.7249,0,-3.6842,-3.6939,-3.6908,-3.7007,-3.7049,-3.6991,-3.7042,-3.7053,-3.7044,-3.708,-3.707,-3.7112,-3.7054,-3.7063,-3.7107,-3.71,-3.7176,-3.7089,-3.7144,-3.7146,-3.7142,-3.7331,-3.7366,-3.7503,-3.7267,-3.727,-3.7272,0,-3.7018,-3.704,-3.7144,-3.7144,-3.716,-3.7206,-3.7233,-3.7267,-3.7279,-3.7269,-3.7288,-3.7254,-3.7314,-3.7243,-3.7325,-3.7266,-3.7287,-3.7288,-3.7292,-3.7296,-3.7216,-3.734,-3.7545,-3.7566,-3.7301,-3.7299,-3.7296,0,-3.7157,-3.7213,-3.7282,-3.7292,-3.7293,-3.7327,-3.733,-3.7337,-3.7359,-3.7383,-3.7397,-3.7429,-3.7447,-3.7473,-3.745,-3.74,-3.7536,-3.7463,-3.7531,-3.7532,-3.7562,-3.7561,-3.7774,-3.7577,-3.7576,-3.7576,-3.7575,0,-3.7316,-3.7382,-3.7345,-3.7387,-3.746,-3.7424,-3.7497,-3.7494,-3.7502,-3.7544,-3.7497,-3.7539,-3.7505,-3.7544,-3.7526,-3.7598,-3.7606,-3.7602,-3.7596,-3.7606,-3.7606,-3.7619,-3.7609,-3.7581,-3.758,-3.7579,-3.7578,0,-3.7483,-3.7461,-3.7532,-3.7528,-3.7529,-3.7583,-3.758,-3.762,-3.7608,-3.7663,-3.7674,-3.7656,-3.77,-3.7679,-3.7725,-3.7713,-3.7806,-3.7788,-3.7801,-3.7797,-3.7866,-3.786,-3.8095,-3.8125,-3.7908,-3.791,-3.7912,0,-3.7586,-3.7635,-3.7636,-3.766,-3.7665,-3.7705,-3.7727,-3.7694,-3.7719,-3.7737,-3.7776,-3.7815,-3.7844,-3.7918,-3.791,-3.7946,-3.7929,-3.8009,-3.7934,-3.7942,-3.793,-3.7928,-3.7933,-3.8023,-3.8026,-3.8028,-3.803,0,-3.7771,-3.7758,-3.7789,-3.7818,-3.7844,-3.7866,-3.7883,-3.7906,-3.7874,-3.7905,-3.7948,-3.7971,-3.8018,-3.8058,-3.809,-3.8095,-3.8058,-3.8053,-3.8071,-3.8081,-3.8087,-3.8085,-3.7842,-3.8048,-3.8046,-3.8045,-3.8044,-3.8043,-3.7909,-3.795,-3.7958,-3.7995,-3.8004,-3.8022,-3.806,-3.8053,-3.8087,-3.8122,-3.8101,-3.8153,-3.8165,-3.8203,-3.8214,-3.8255,-3.8223,-3.8249,-3.8256,-3.8262,-3.8272,-3.8081,-3.8261,-3.826,-3.8259,-3.8259,-3.8259,0,-3.8092,-3.8094,-3.8129,-3.8154,-3.8184,-3.8145,-3.8163,-3.8191,-3.8236,-3.825,-3.828,-3.8331,-3.837,-3.8366,-3.8403,-3.8437,-3.8421,-3.8448,-3.8445,-3.8447,-3.8298,-3.8278,-3.846,-3.846,-3.846,-3.846,-3.846,-3.846,-3.8191,-3.8258,-3.8247,-3.8319,-3.8321,-3.8369,-3.8383,-3.84,-3.8411,-3.8469,-3.8501,-3.8498,-3.8505,-3.8542,-3.8578,-3.8576,-3.8592,-3.8625,-3.8617,-3.8477,-3.8457,-3.8438,-3.842,-3.8629,-3.8629,-3.8763,-3.8764,-3.8765]},{"header":{"parameterUnit":"m.s-1","parameterCategory":1,"la1":30.2991,"la2":30.254,"lo1":-89.0895,"lo2":-89.0444,"dy":0.0017,"dx":0.0017,"nx":28,"ny":28,"refTime":"2025-08-08T21:00:00:Z","depth":0,"parameterNumber":3,"parameterNumberName":"V-component_of_WINDS"},"data":[0,0,0,0,0,0,0,0,0,0,0,0,0,0,0,0,0,0,0,0,0,0,0,0,0,0,0,0,0,0,0,0,0,0,0,0,0,0,0,0,0,0,0,0,0,0,0,0,0,0,0,0,0,0,0,0,0,0,-0.411,-0.411,0,-0.4091,-0.4091,-0.409,-0.4049,-0.4048,-0.4048,-0.4047,-0.4029,-0.4029,-0.4029,0,0,0,0,0,0,0,0,0,0,0,0,0,-0.4112,-0.4112,-0.411,-0.411,-0.411,-0.4091,-0.4091,-0.409,-0.4049,-0.4048,-0.4047,-0.4046,-0.4028,-0.4029,-0.4029,0,0,0,0,0,0,0,0,0,0,0,0,0,-0.4104,-0.4112,-0.411,-0.4087,-0.4085,-0.4091,-0.4091,-0.409,-0.405,-0.4048,-0.4047,-0.4046,-0.4028,-0.4029,-0.4029,-0.4057,0,0,-0.4031,-0.4031,0,0,0,0,0,0,0,0,-0.4104,-0.4104,-0.409,-0.4088,-0.4086,-0.4071,-0.4085,-0.4079,-0.405,-0.4063,-0.4047,-0.4045,-0.4044,-0.4043,-0.4042,-0.4056,-0.4055,-0.4031,-0.4031,-0.4031,-0.4031,0,0,0,0,0,0,0,-0.4105,-0.4105,-0.4102,-0.409,-0.4088,-0.4078,-0.4075,-0.4083,-0.4061,-0.4062,-0.4059,-0.4057,-0.4042,-0.4042,-0.4041,-0.4055,-0.4031,-0.4031,-0.4031,-0.4031,-0.4091,-0.4093,0,0,0,0,0,0,-0.4109,-0.4105,-0.4103,-0.4102,-0.4092,-0.4079,-0.4076,-0.4077,-0.4061,-0.4057,-0.4058,-0.4055,-0.4042,-0.4041,-0.4041,-0.4073,-0.4031,-0.4031,-0.4032,-0.409,-0.4092,-0.4093,0,0,0,0,0,0,-0.4109,-0.4109,-0.4104,-0.4103,-0.4101,-0.408,-0.4082,-0.4077,-0.4077,-0.4058,-0.4054,-0.4062,-0.4041,-0.404,-0.4053,-0.4071,-0.4032,-0.4032,-0.4088,-0.4091,-0.4092,-0.4137,0,0,0,0,0,0,-0.4109,-0.4109,-0.412,-0.4103,-0.4102,-0.4117,-0.4083,-0.4078,-0.4078,-0.4074,-0.406,-0.4057,-0.404,-0.4053,-0.4054,-0.4071,-0.4032,-0.4087,-0.4089,-0.4092,-0.4133,-0.414,-0.4145,0,0,0,0,0,-0.4109,-0.4133,-0.412,-0.412,-0.4114,-0.4118,-0.4117,-0.4097,-0.4079,-0.409,-0.4077,-0.4057,-0.4069,-0.4055,-0.4055,-0.4073,-0.4086,-0.4089,-0.4092,-0.4131,-0.4139,-0.4145,0,0,0,0,0,0,-0.4152,-0.413,-0.4116,-0.4135,-0.4129,-0.4111,-0.4123,-0.4105,-0.4104,-0.4101,-0.4076,-0.4073,-0.409,-0.4083,-0.4067,-0.4099,-0.4074,-0.4077,-0.4104,-0.4111,-0.4117,-0.4119,-0.4033,0,0,0,0,0,-0.4164,-0.4169,-0.4149,-0.4168,-0.4165,-0.4145,-0.4146,-0.4131,-0.4123,-0.4121,-0.4109,-0.4103,-0.4105,-0.4108,-0.4109,-0.4132,-0.4129,-0.4144,-0.415,-0.4155,-0.4159,-0.4171,-0.4178,-0.4103,-0.4103,-0.4103,0,0,-0.4188,-0.4177,-0.4181,-0.4176,-0.4169,-0.4175,-0.4143,-0.4151,-0.4155,-0.4122,-0.4134,-0.4125,-0.4117,-0.4135,-0.4143,-0.413,-0.4179,-0.4159,-0.4163,-0.4164,-0.4175,-0.4182,-0.4189,-0.4105,-0.4105,-0.4104,0,0,-0.4235,-0.4227,-0.4241,-0.4235,-0.4225,-0.4211,-0.4215,-0.42,-0.4193,-0.4204,-0.418,-0.4185,-0.4189,-0.4184,-0.4182,-0.4227,-0.4209,-0.4228,-0.426,-0.4272,-0.4278,-0.4283,-0.43,-0.4307,-0.4232,-0.4232,-0.4232,0,-0.4267,-0.4274,-0.4251,-0.4261,-0.4259,-0.4229,-0.4244,-0.4239,-0.423,-0.423,-0.4215,-0.4221,-0.4213,-0.423,-0.4241,-0.424,-0.4244,-0.423,-0.4279,-0.4284,-0.4289,-0.4305,-0.4311,-0.4234,-0.4234,-0.4234,-0.4233,0,-0.4314,-0.432,-0.4333,-0.4325,-0.4325,-0.4337,-0.4316,-0.4319,-0.4303,-0.4291,-0.4304,-0.4293,-0.4292,-0.4294,-0.428,-0.431,-0.4302,-0.4283,-0.4258,-0.4299,-0.4313,-0.4319,-0.4238,-0.4237,-0.4236,-0.4236,0,0,-0.4389,-0.4367,-0.4372,-0.4369,-0.4355,-0.4359,-0.437,-0.4368,-0.4372,-0.4366,-0.4375,-0.438,-0.4362,-0.436,-0.4345,-0.4355,-0.4393,-0.4336,-0.4335,-0.4348,-0.4426,-0.4441,-0.4449,-0.438,-0.4381,-0.4382,-0.4427,0,-0.4433,-0.445,-0.443,-0.4452,-0.4457,-0.4428,-0.4437,-0.443,-0.4419,-0.4423,-0.441,-0.4414,-0.4391,-0.4389,-0.4398,-0.4386,-0.4408,-0.4383,-0.4389,-0.439,-0.4393,-0.4456,-0.4472,-0.4515,-0.4433,-0.4434,-0.4434,0,-0.4488,-0.4485,-0.4508,-0.4493,-0.4494,-0.4503,-0.45,-0.4503,-0.4495,-0.4486,-0.4484,-0.4465,-0.4475,-0.4449,-0.4463,-0.4446,-0.4447,-0.4441,-0.4443,-0.4443,-0.4415,-0.446,-0.4528,-0.4536,-0.4443,-0.4442,-0.4442,0,-0.4542,-0.4543,-0.4557,-0.4554,-0.4537,-0.4544,-0.4538,-0.4528,-0.4528,-0.4525,-0.4526,-0.4524,-0.4524,-0.4523,-0.4505,-0.4487,-0.4521,-0.4494,-0.4515,-0.4516,-0.4525,-0.4525,-0.4596,-0.4524,-0.4523,-0.4523,-0.4523,0,-0.4594,-0.4609,-0.458,-0.4589,-0.4605,-0.4581,-0.4598,-0.4588,-0.458,-0.4586,-0.4561,-0.4568,-0.4542,-0.4546,-0.4532,-0.4546,-0.4546,-0.454,-0.4536,-0.4543,-0.4544,-0.4544,-0.4541,-0.4525,-0.4525,-0.4524,-0.4524,0,-0.4657,-0.4638,-0.4651,-0.4634,-0.463,-0.4643,-0.4628,-0.4636,-0.4622,-0.4631,-0.4632,-0.4612,-0.4615,-0.4596,-0.4597,-0.4587,-0.4609,-0.4599,-0.4612,-0.4609,-0.4632,-0.4631,-0.4707,-0.4717,-0.4637,-0.4638,-0.4639,0,-0.4693,-0.4704,-0.4687,-0.469,-0.4684,-0.4688,-0.4688,-0.4665,-0.4667,-0.4658,-0.4667,-0.4668,-0.4668,-0.4675,-0.4661,-0.4661,-0.4652,-0.4679,-0.4652,-0.4659,-0.4654,-0.4654,-0.4656,-0.4685,-0.4686,-0.4687,-0.4687,0,-0.4758,-0.4748,-0.4749,-0.4747,-0.4748,-0.4745,-0.4741,-0.4744,-0.4719,-0.4722,-0.4725,-0.4725,-0.4726,-0.4728,-0.4725,-0.4718,-0.47,-0.4696,-0.4701,-0.4709,-0.4716,-0.4714,-0.4628,-0.4695,-0.4694,-0.4693,-0.4693,-0.4693,-0.4809,-0.4817,-0.4807,-0.481,-0.4804,-0.48,-0.4807,-0.4794,-0.4796,-0.4795,-0.4781,-0.4787,-0.4778,-0.4773,-0.4768,-0.4773,-0.476,-0.4768,-0.477,-0.4772,-0.4777,-0.4714,-0.4772,-0.4772,-0.4772,-0.4772,-0.4771,0,-0.4874,-0.4866,-0.4868,-0.4863,-0.4865,-0.4845,-0.484,-0.4843,-0.4848,-0.4842,-0.4842,-0.4846,-0.4848,-0.4834,-0.4834,-0.4841,-0.4832,-0.4842,-0.4842,-0.4841,-0.4787,-0.4783,-0.4849,-0.4849,-0.4849,-0.4849,-0.4849,-0.4849,-0.4908,-0.4922,-0.4911,-0.4921,-0.4913,-0.4919,-0.4917,-0.4914,-0.4909,-0.4915,-0.4916,-0.4906,-0.4897,-0.4896,-0.4897,-0.4893,-0.4895,-0.4908,-0.4901,-0.4852,-0.4844,-0.4837,-0.4834,-0.4908,-0.4908,-0.4954,-0.4955,-0.4955]}]]